You are not logged in, Click here to log in
ICAO: NSFA Country: 薩摩亞首都阿皮亞以西40公里
Latitude: -13.83 Longitude: -172.008
Total Arrivals: 1 Total Departures: 0
Latest Arrival: GC6 (NZAA-NSFA)KE. CHIH-HAO Latest Departure: (-).
Scenery:
METAR : NSFA 180000Z 02007KT 9999 FEW020CB FEW024 BKN290 30/26 Q1012 RMK CB TO WNW

法萊奧洛國際機場APW